Time,TemperatureF,DewpointF,PressureIn,WindDirection,WindDirectionDegrees,WindSpeedMPH,WindSpeedGustMPH,Humidity,HourlyPrecipIn,Conditions,Clouds,dailyrainin,SoftwareType,DateUTC
2013-08-30 11:52:00,97.0,56.0,29.96,West,263,2.0,8.0,26,0.00,,,0.00,,2013-08-30 18:52:00,
2013-08-30 12:12:00,97.0,57.0,29.96,NW,304,3.0,6.0,27,0.00,,,0.00,,2013-08-30 19:12:00,
2013-08-30 12:21:00,98.0,56.0,29.96,WNW,288,2.0,6.0,25,0.00,,,0.00,,2013-08-30 19:21:00,
2013-08-30 12:53:00,98.0,55.0,29.95,SW,232,4.0,11.0,24,0.00,,,0.00,,2013-08-30 19:53:00,
2013-08-30 13:11:00,97.0,60.0,29.95,SE,126,3.0,9.0,30,0.00,,,0.00,,2013-08-30 20:11:00,
2013-08-30 13:22:00,96.0,63.0,29.95,SW,221,5.0,12.0,34,0.00,,,0.00,,2013-08-30 20:22:00,
2013-08-30 13:52:00,95.0,66.0,29.95,SW,220,4.0,14.0,39,0.00,,,0.00,,2013-08-30 20:52:00,
2013-08-30 14:21:00,93.0,65.0,29.95,West,271,1.0,10.0,40,0.00,,,0.00,,2013-08-30 21:21:00,
2013-08-30 14:55:00,90.0,68.0,29.95,WSW,249,3.0,7.0,48,0.00,,,0.00,,2013-08-30 21:55:00,
2013-08-30 15:13:00,90.0,68.0,29.94,West,266,2.0,9.0,48,0.00,,,0.00,,2013-08-30 22:13:00,
2013-08-30 15:24:00,92.0,68.0,29.94,SW,219,2.0,5.0,45,0.00,,,0.00,,2013-08-30 22:24:00,
2013-08-30 15:54:00,92.0,66.0,29.93,SW,234,2.0,7.0,42,0.00,,,0.00,,2013-08-30 22:54:00,
2013-08-30 16:12:00,91.0,65.0,29.93,SSW,213,2.0,9.0,43,0.00,,,0.00,,2013-08-30 23:12:00,
2013-08-30 16:22:00,91.0,65.0,29.93,SW,221,1.0,7.0,42,0.00,,,0.00,,2013-08-30 23:22:00,
2013-08-30 16:53:00,92.0,66.0,29.93,WSW,242,0.0,6.0,42,0.00,,,0.00,,2013-08-30 23:53:00,
2013-08-30 17:11:00,91.0,65.0,29.92,SW,225,3.0,8.0,42,0.00,,,0.00,,2013-08-31 00:11:00,
2013-08-30 17:21:00,91.0,65.0,29.92,SW,227,1.0,6.0,42,0.00,,,0.00,,2013-08-31 00:21:00,
2013-08-30 17:42:00,92.0,66.0,29.92,WSW,255,0.0,4.0,42,0.00,,,0.00,,2013-08-31 00:42:00,
2013-08-30 17:52:00,91.0,65.0,29.92,SW,217,2.0,7.0,42,0.00,,,0.00,,2013-08-31 00:52:00,
2013-08-30 18:11:00,92.0,65.0,29.92,SW,221,0.0,4.0,41,0.00,,,0.00,,2013-08-31 01:11:00,
2013-08-30 18:21:00,90.0,64.0,29.92,SSW,204,0.0,6.0,43,0.00,,,0.00,,2013-08-31 01:21:00,
2013-08-30 18:52:00,90.0,64.0,29.92,SW,215,0.0,5.0,42,0.00,,,0.00,,2013-08-31 01:52:00,
2013-08-30 19:11:00,88.0,63.0,29.93,SW,216,0.0,1.0,43,0.00,,,0.00,,2013-08-31 02:11:00,
2013-08-30 19:22:00,86.0,63.0,29.93,SSW,213,1.0,5.0,46,0.00,,,0.00,,2013-08-31 02:22:00,
2013-08-30 19:42:00,86.0,63.0,29.93,SSW,213,0.0,0.0,46,0.00,,,0.00,,2013-08-31 02:42:00,
2013-08-30 19:52:00,84.0,62.0,29.93,SSW,213,0.0,0.0,47,0.00,,,0.00,,2013-08-31 02:52:00,
2013-08-30 20:12:00,84.0,62.0,29.93,SSW,209,0.0,0.0,48,0.00,,,0.00,,2013-08-31 03:12:00,
2013-08-30 20:22:00,83.0,62.0,29.94,SSW,198,0.0,1.0,50,0.00,,,0.00,,2013-08-31 03:22:00,
2013-08-30 20:54:00,82.0,62.0,29.94,SSW,197,0.0,0.0,51,0.00,,,0.00,,2013-08-31 03:54:00,
2013-08-30 21:13:00,81.0,62.0,29.95,SSW,197,0.0,0.0,53,0.00,,,0.00,,2013-08-31 04:13:00,
2013-08-30 21:24:00,81.0,62.0,29.95,SSW,197,0.0,0.0,52,0.00,,,0.00,,2013-08-31 04:24:00,
2013-08-30 21:54:00,81.0,62.0,29.96,SSW,197,0.0,0.0,52,0.00,,,0.00,,2013-08-31 04:54:00,
2013-08-30 22:13:00,81.0,62.0,29.96,SSW,197,0.0,0.0,52,0.00,,,0.00,,2013-08-31 05:13:00,
2013-08-30 22:23:00,82.0,63.0,29.96,SSW,196,0.0,1.0,53,0.00,,,0.00,,2013-08-31 05:23:00,
2013-08-30 22:42:00,80.0,63.0,29.96,SSW,197,0.0,0.0,56,0.00,,,0.00,,2013-08-31 05:42:00,
2013-08-30 22:52:00,80.0,62.0,29.96,South,187,0.0,1.0,55,0.00,,,0.00,,2013-08-31 05:52:00,
2013-08-30 23:12:00,80.0,63.0,29.96,South,187,0.0,0.0,56,0.00,,,0.00,,2013-08-31 06:12:00,
2013-08-30 23:22:00,79.0,62.0,29.96,South,187,0.0,0.0,57,0.00,,,0.00,,2013-08-31 06:22:00,
2013-08-30 23:52:00,78.0,62.0,29.96,South,187,0.0,0.0,59,0.00,,,0.00,,2013-08-31 06:52:00,